This is the latest recevied weather packets stored in our database for station/object W7TJC. If no packets are shown the sender has not sent any weather packets the latest 10 day(s).
| Time | Temp. | Humidity | Pressure | Rain* | Wind** | Luminosity | Snow |
|---|---|---|---|---|---|---|---|
| 1777156871 | 16.67° C | 24% | 1011.4 hPa | 0 mm | - | 48 W/m² | - |
| 1777156566 | 16.67° C | 23% | 1011.4 hPa | 0 mm | - | 24 W/m² | - |
| 1777156263 | 17.22° C | 24% | 1011.9 hPa | 0 mm | - | 20 W/m² | - |
| 1777155960 | 17.22° C | 22% | 1011.5 hPa | 0 mm | - | 20 W/m² | - |
| 1777155656 | 16.67° C | 24% | 1011.6 hPa | 0 mm | - | 21 W/m² | - |
| 1777155352 | 17.78° C | 23% | 1011.5 hPa | 0 mm | - | 22 W/m² | - |
| 1777155050 | 17.78° C | 23% | 1011.8 hPa | 0 mm | - | 22 W/m² | - |
| 1777154747 | 17.78° C | 24% | 1012.1 hPa | 0 mm | - | 36 W/m² | - |
| 1777154443 | 18.33° C | 22% | 1012 hPa | 0 mm | - | 23 W/m² | - |
| 1777154138 | 17.78° C | 23% | 1011.9 hPa | 0 mm | - | 27 W/m² | - |
| 1777153835 | 18.33° C | 22% | 1012.2 hPa | 0 mm | - | 390 W/m² | - |
| 1777153531 | 18.89° C | 25% | 1012 hPa | 0 mm | - | 430 W/m² | - |
| 1777153227 | 17.78° C | 24% | 1011.9 hPa | 0 mm | - | 524 W/m² | - |
| 1777152924 | 18.33° C | 24% | 1012 hPa | 0 mm | - | 477 W/m² | - |
| 1777152620 | 18.89° C | 28% | 1012.2 hPa | 0 mm | - | 530 W/m² | - |
| 1777152318 | 18.89° C | 25% | 1012.4 hPa | 0 mm | - | 620 W/m² | - |
| 1777152018 | 18.33° C | 31% | 1012.2 hPa | 0 mm | - | 624 W/m² | - |
| 1777151714 | 18.89° C | 25% | 1012.4 hPa | 0 mm | - | 616 W/m² | - |
| 1777151411 | 18.33° C | 24% | 1012.2 hPa | 0 mm | - | 636 W/m² | - |
| 1777151106 | 17.78° C | 23% | 1012.4 hPa | 0 mm | - | 702 W/m² | - |
| 1777150801 | 18.33° C | 25% | 1012.2 hPa | 0 mm | - | 684 W/m² | - |
| 1777150496 | 18.89° C | 29% | 1012.4 hPa | 0 mm | - | 659 W/m² | - |
| 1777150193 | 18.33° C | 26% | 1012.4 hPa | 0 mm | - | 689 W/m² | - |
| 1777149891 | 17.78° C | 30% | 1012.4 hPa | 0 mm | - | 714 W/m² | - |
| 1777149587 | 17.78° C | 29% | 1012.5 hPa | 0 mm | - | 702 W/m² | - |
* Rain latest hour (hover to see other rain measurements)
** Current wind speed in m/s (hover to see current wind gust speed)